Погода Богородицкое

Погода Богородицкое : погода сейчас, прогноз погоды и архив. Всё, что Вы хотите узнать о погоде Богородицкое!

Поиск расширенной информации на нашем сайте:

Другие новости

Новости СМИ2

Главная страница сайта

Новости сайта

02.10.2013

Напоминаем, что на нашем новом сайте вы можете получить высокодетализированные прогнозы погоды по пунктам России, СНГ и мира (включающие важные для авиации метеовеличины, такие как направление и скорость ветра, видимость, явления погоды, количество и форма облачности, нижняя и верхняя граница облачности), а также ознакомиться с разнообразными материалами по авиационной метеорологии и подборкой полезных ссылок на эту тему.

Сайт Метеоцентр.Азия посвящён разработке технологий оптимизации авиаметеорологического обслуживания, включая проектирование и перспективное создание нескольких автоматизированных авиаметеорологических систем:
- система выпуска высокодетальных прогностических карт явлений погоды для нижнего воздушного пространства по России и ближнему зарубежью;
- система верификации прогнозов TAF (выпускаемых синоптиками официальных АМСГ РФ и ближнего зарубежья) и AUTOTAF (выпускаемых сайтом Метеоцентр.Азия) - выявление ошибок, онлайн-сопоставление с фактической погодой METAR, автоматическое внесение коррективов в прогнозы при резком отклонении фактической погоды от прогноза, подсчёт оправдываемости прогнозов по элементам и в целом;
- система обработки, анализа и отображения авиаметеорологической информации для применения провайдерами метеорологической информации.

Рекомендуем: Пожелаю всем кушать Super P-force в объёмах, которыми я ем.

Погода Богородицкое - сегодня

Время (UTC), дата Ветер
(°,м/с) 
Видим.   Явления Облачность Т
(°С)
Тd
(°С)
f(%) Тe
(°С)
Pmin
(гПа)
dP
(гПа)
Po
(мм)
O2
(г/м3)
Тmin Tmax R s Состояние
почвы
06 17.02.17 200 (Ю) 20000 м    9/9 2000 м средняя 
[Ac trans]
-10.3 -13.1 80 -13  1027.3  -1.6  748  314  -15.5      44  неравномерный
сухой снег
100% 
09 17.02.17 200 (Ю) 20000 м    10/10 2000 м 
[Ac und]
-5.9 -10.7 69 -10  1025  -1.7  747  309           
12 17.02.17 210 (ЮЗ) 5{10}  20000 м  {ливн. осадки}  9/9 2000 м средняя 
[Ac trans]
-5.1 -8 80 -9  1021.8  -3  745  307           
15 17.02.17 210 (ЮЗ) 20000 м    9/9 2000 м средняя 
[Ac trans]
-5.1 -8.8 75 -8  1020.6  -1.2  744  306      0.9     
18 17.02.17 220 (ЮЗ) 10 км    9/9 2000 м средняя 
[Ac trans]
-5.8 -8.8 79 -9  1019.5  -1.2  743  307    -4.1  0.9     
21 17.02.17 230 (ЮЗ) 6{11}  10 км    10/10 2000 м 
[Ac und]
-3 -5.4 83 -7  1018.3  -0.8  742  303           
00 18.02.17 220 (ЮЗ) 5{10}  10 км    10/10 2000 м 
[Ac und]
-2.2 -4 87 -6  1018.1  -0.1  742  302           
03 18.02.17 230 (ЮЗ) 10 км    10/10 2000 м 
[Ac und]
-1.3 -3 88 -5  1017.5  -0.5  742  301  -6         
06 18.02.17 240 (ЮЗ) 4000 м  дымка  10/10 2000 м 
[Ac und]
-1 -2 93 -4  1018.2  0.7  742  300  -6      44  неравномерный
сухой снег
100% 
09 18.02.17 250 (З) 6-10{11}  4000 м  дымка  10/10 2000 м 
[Ac und]
+0.3 -2.1 84 -3  1017.9  -0.1  742  299           
12 18.02.17 240 (ЮЗ) 5{10}  10 км  в посл. час ливневой снег  9/4 600 м кучево-дожд., средняя 
[Cb calv|Ac trans]
+0.8 -1.8 83 -2  1017.4  -0.5  742  298           
15 18.02.17 260 (З) 5{10}  10 км    9/9 2000 м средняя 
[Ac trans]
+0.7 -1.6 85 -2  1017.8  0.4  742  298      0.0     
18 18.02.17 250 (З) 10 км    10/10 2000 м 
[Ac und]
+0.6 -1.4 86 -3  1018  0.2  742  299    +0.8  0.0     
21 18.02.17 250 (З) 10 км    10/10 2000 м 
[Ac und]
+0.7 -1 88 -3  1018.8  0.7  743  299           
00 19.02.17 260 (З) 5{10}  10 км    10/10 2000 м 
[Ac und]
+0.4 -1.3 88 -3  1019.6  0.8  743  299           
03 19.02.17 260 (З) 4000 м  дымка  10/10 540 м 
[St]
+0.3 -0.5 94 -2  1020.6  744  300  +0         
06 19.02.17 240 (ЮЗ) 20000 м    10/10 540 м 
[St]
+0.7 -0.7 90 -2  1021.8  1.1  745  299  +0      43  неравномерный
мокрый или
старый снег
100% 
09 19.02.17 260 (З) 20000 м    10/10 570 м 
[St]
+1.2 -0.5 88 -1  1022.7  746  299           
12 19.02.17 240 (ЮЗ) 5{10}  20000 м    10/10 540 м 
[St]
+1.4 -0.8 85 -1  1022.3  -0.4  746  299           
15 19.02.17 250 (З) 6-11{12}  20000 м    10/10 500 м 
[St]
+1.5 -1 83 -2  1021.8  -0.5  745  299           
18 19.02.17 250 (З) 5{11}  10 км    6/6 2000 м средняя 
[Ac trans]
+1 -0.7 88 -2  1021.5  -0.3  745  299    +1.5       
21 19.02.17 270 (З) 6{10}  10 км    10/10 2000 м 
[Ac und]
+1.6 -0.3 87 -2  1020.7  -0.7  744  298           
00 20.02.17 260 (З) 6-10{12}  10 км    10/10 2000 м 
[Ac und]
+1.4 -1.5 81 -2  1019.9  -0.8  744  298           
03 20.02.17 250 (З) 6-10{10}  10 км    10/10 2000 м 
[Ac und]
-1 -2.6 89 -5  1019.3  -0.9  743  301  -1.6         
06 20.02.17 240 (ЮЗ) 7-12{12}  10 км    10/0 средняя 
[As op]
-0.6 -2.7 86 -5  1018.8  -0.4  743  300  -1.6      40  неравномерный
мокрый или
старый снег
100% 
Время (UTC), дата Ветер
(°,м/с) 
Видим.   Явления Облачность Т
(°С)
Тd
(°С)
f(%) Тe
(°С)
Pmin
(гПа)
dP
(гПа)
Po
(мм)
O2
(г/м3)
Тmin Tmax R s Состояние
почвы

Для получения пояснительной информации подведите курсор к названию столбца.

ПОГОДА Богородицкое - архив

Всё, что Вы хотите узнать о погоде Богородицкое - удобно и подробно!

Выберите нужную дату (начиная с 1 января 2015* года) и нажмите кнопку "Найти".
Будут отображены архивные сводки погоды по пункту Богородицкое, начиная с указанной даты.


Отображать данные в формате CSV (для использования в таблицах Excel)


Внимание! Наш архив погоды предназначен исключительно для личного некоммерческого использования в познавательных целях. Если Вам необходимы официальные справки о состоянии погоды (для производственных, юридических, коммерческих и т.п. целей), обращайтесь в органы Росгидромета.

*Примечание: данная дата относится к архиву по метеостанциям СССР (Россия, СНГ, Балтия).
Архив по метеостанциям Зарубежной Европы и Азии (кроме Китая) хранится 10 дней, по другим регионам земного шара (Китай, Африка, Америка, Австралия, Океания) - 1 день.

Богородицкое - район местоположения метеостанции


Название, широта, долгота, высота метеостанции:
Богородицкое 51.17°ш. 37.35°д. 226 м над ур. моря [Российская Федерация]

Дополнительная информация

В oтличие oт бoльшинства пoгoдных сайтoв мы публикуем пoдрoбную метеoинфoрмацию в детальнoм прoфессиoнальнoм фoрмате.

Характеристики температуры и влажнoсти вoздуха измеряются на высoте 2 м в тени вдали oт зданий и деревьев.
Скoрoсть ветра измеряется на высoте 10 м (на урoвне рoста челoвека скoрoсть ветра ниже в 1.5-2 раза). Если метеoстанция нахoдится в гoрoде или в лесу, тo скoрoсть ветра занижена на 2-4 м/с пo сравнению с oткрытым местoм. Скoрoсть ветра над акватoриями крупных рек и oзёр, а также на вершинах хoлмoв на 2-5 м/с выше, чем в oбычных услoвиях.
Атмoсфернoе давление в разных тoчках местнoсти мoжет значительнo oтличаться oт давления на метеoстанции, в зависимoсти oт услoвий рельефа (при пoдъёме на 10 м давление пoнижается примернo на 1 мм рт.ст.).